Amsterdam, Netherlands

4:15 PM CEST on May 23, 2017 (GMT +0200)
Amsterdam

Weather History for 06240 - January, 2014

Change the Weather History Date:

Tuesday, January 14, 2014

  Actual Average Record
Temperature  
Mean Temperature 40 °F -  
Max Temperature 43 °F 42 °F - ()
Min Temperature 36 °F 33 °F - ()
Degree Days  
Heating Degree Days 26    
Moisture  
Dew Point 39 °F    
Average Humidity 93    
Maximum Humidity 100    
Minimum Humidity 84    
Precipitation  
Precipitation 0.04 in - - ()
Sea Level Pressure  
Sea Level Pressure 29.66 in    
Wind  
Wind Speed 9 mph ()    
Max Wind Speed 13 mph    
Max Gust Speed -    
Visibility 6.7 miles    
Events Rain    
T = Trace of Precipitation, MM = Missing Value Source: Averaged Metar Reports

Daily Weather History Graph

Daily Weather History Graph

Search for Another Location

Airport or City:

Trip Planner

Search our weather history database for the weather conditions in past years. The results will help you decide how hot, cold, wet, or windy it might be!

Date:

Astronomy

Jan. 14, 2014 Rise Set
Actual Time 8:44 AM CET 4:55 PM CET
Civil Twilight 8:04 AM CET 5:35 PM CET
Nautical Twilight 7:21 AM CET 6:18 PM CET
Astronomical Twilight 6:41 AM CET 6:59 PM CET
Moon 3:51 PM CET (1/14) 7:04 AM CET (1/14)
Length of Visible Light 9h 30m
Length of Day
8h 11m
Waxing Gibbous, 97% of the Moon is Illuminated
Jan 14
Waxing Gibbous
Jan 16
Full
Jan 24
Last Quarter
Jan 30
New
Feb 6
First Quarter

Hourly Weather History & Observations

Time (CET) Temp. Windchill Dew Point Humidity Pressure Visibility Wind Dir Wind Speed Gust Speed Precip Events Conditions
12:00 AM 39 °F - 38 °F 93% 29.71 in 6 mi SSE 11.2 mph - -  
12:25 AM 39.2 °F 32.5 °F 37.4 °F 93% 29.68 in - SSE 10.4 mph - N/A   Clear
12:55 AM 39.2 °F 32.5 °F 37.4 °F 93% 29.68 in 5.6 mi SSE 10.4 mph - N/A   Unknown
1:00 AM 39 °F - 38 °F 92% 29.69 in 6 mi SSE 11.2 mph - -   Partly Cloudy
1:25 AM 39.2 °F 33.0 °F 37.4 °F 93% 29.68 in 5.6 mi SSE 9.2 mph - N/A   Unknown
1:55 AM 39.2 °F 32.0 °F 37.4 °F 93% 29.65 in 5.6 mi SSE 11.5 mph - N/A   Unknown
2:00 AM 39 °F - 37 °F 92% 29.67 in 6 mi SSE 11.2 mph - -   Mist
2:25 AM 39.2 °F 32.5 °F 37.4 °F 93% 29.65 in 5.6 mi SSE 10.4 mph - N/A   Unknown
2:55 AM 37.4 °F 30.8 °F 37.4 °F 100% 29.65 in 5.6 mi SE 9.2 mph - N/A   Unknown
3:00 AM 38 °F - 37 °F 93% 29.67 in 5 mi SSE 8.9 mph - -   Mist
3:25 AM 37.4 °F 30.8 °F 35.6 °F 93% 29.65 in 5.6 mi SE 9.2 mph - N/A   Unknown
3:55 AM 37.4 °F 30.3 °F 37.4 °F 100% 29.65 in 5.6 mi SSE 10.4 mph - N/A   Partly Cloudy
4:00 AM 38 °F - 37 °F 94% 29.66 in 6 mi SE 11.2 mph - -   Mist
4:25 AM 37.4 °F 30.8 °F 37.4 °F 100% 29.65 in 5.6 mi SE 9.2 mph - N/A   Partly Cloudy
4:55 AM 37.4 °F 29.8 °F 37.4 °F 100% 29.62 in 5.6 mi SE 11.5 mph - N/A   Scattered Clouds
5:00 AM 38 °F - 37 °F 97% 29.65 in 5 mi SE 11.2 mph - -   Mist
5:25 AM 39.2 °F 32.5 °F 37.4 °F 93% 29.62 in 5.6 mi SE 10.4 mph - N/A   Partly Cloudy
5:55 AM 37.4 °F 30.3 °F 37.4 °F 100% 29.62 in 6.2 mi SE 10.4 mph - N/A   Partly Cloudy
6:00 AM 38 °F - 37 °F 95% 29.64 in 7 mi SE 11.2 mph - -   Partly Cloudy
6:25 AM 39.2 °F 32.5 °F 37.4 °F 93% 29.62 in - SE 10.4 mph - N/A   Clear
6:55 AM 39.2 °F 32.5 °F 37.4 °F 93% 29.62 in 6.2 mi SE 10.4 mph - N/A   Partly Cloudy
7:00 AM 39 °F - 38 °F 92% 29.64 in 9 mi SE 11.2 mph - -   Partly Cloudy
7:25 AM 39.2 °F 32.5 °F 37.4 °F 93% 29.62 in 6.2 mi SE 10.4 mph - N/A   Partly Cloudy
7:55 AM 39.2 °F 32.0 °F 37.4 °F 93% 29.62 in - ESE 11.5 mph - N/A   Clear
8:00 AM 39 °F - 38 °F 93% 29.63 in 9 mi ESE 11.2 mph - -   Overcast
8:25 AM 39.2 °F 32.5 °F 37.4 °F 93% 29.62 in - ESE 10.4 mph - N/A   Clear
8:55 AM 39.2 °F 33.0 °F 37.4 °F 93% 29.62 in - SE 9.2 mph - N/A   Clear
9:00 AM 40 °F - 38 °F 88% 29.64 in 11 mi SE 8.9 mph - -   Overcast
9:25 AM 39.2 °F 32.5 °F 37.4 °F 93% 29.62 in 6.2 mi SE 10.4 mph - N/A   Partly Cloudy
10:00 AM 40 °F - 38 °F 89% 29.65 in 11 mi SE 8.9 mph - -   Overcast
10:25 AM 41.0 °F 35.2 °F 37.4 °F 87% 29.62 in 6.2 mi ESE 9.2 mph - N/A Rain Light Rain
10:55 AM 41.0 °F 35.2 °F 39.2 °F 93% 29.62 in 6.2 mi SE 9.2 mph - N/A Rain Light Rain
11:00 AM 41 °F - 39 °F 88% 29.65 in 11 mi SE 8.9 mph - - Rain Light Rain
11:25 AM 41.0 °F 34.3 °F 39.2 °F 93% 29.62 in 6.2 mi SE 11.5 mph - N/A   Mostly Cloudy
11:55 AM 41.0 °F 33.9 °F 39.2 °F 93% 29.62 in 6.2 mi SE 12.7 mph - N/A Rain Light Rain
12:00 PM 42 °F - 39 °F 86% 29.64 in 7 mi SE 11.2 mph - - Rain Drizzle
12:25 PM 41.0 °F 34.3 °F 39.2 °F 93% 29.62 in 5.0 mi SSE 11.5 mph - N/A Rain Light Rain
12:55 PM 41.0 °F 35.2 °F 41.0 °F 100% 29.62 in 6.2 mi SE 9.2 mph - N/A Rain Light Rain
1:00 PM 42 °F - 40 °F 91% 29.64 in 7 mi SE 8.9 mph - - Rain Light Rain
1:25 PM 42.8 °F 37.0 °F 41.0 °F 93% 29.62 in 6.2 mi SE 10.4 mph - N/A Rain Light Rain
1:55 PM 42.8 °F 37.5 °F 41.0 °F 93% 29.62 in 6.2 mi SE 9.2 mph - N/A   Mostly Cloudy
2:00 PM 43 °F - 41 °F 89% 29.64 in 6 mi SE 8.9 mph - - Rain Rain
2:25 PM 42.8 °F 37.5 °F 41.0 °F 93% 29.62 in 6.2 mi SSE 9.2 mph - N/A   Mostly Cloudy
2:55 PM 42.8 °F 37.5 °F 41.0 °F 93% 29.62 in 6.2 mi SSE 9.2 mph - N/A   Mostly Cloudy
3:00 PM 44 °F - 41 °F 86% 29.65 in 10 mi SSE 8.9 mph - -   Partly Cloudy
3:25 PM 42.8 °F 37.0 °F 41.0 °F 93% 29.65 in 6.2 mi South 10.4 mph - N/A   Mostly Cloudy
3:55 PM 42.8 °F 38.0 °F 41.0 °F 93% 29.65 in 6.2 mi SSE 8.1 mph - N/A Rain Light Rain
4:00 PM 44 °F - 41 °F 84% 29.67 in 12 mi South 8.9 mph - -   Partly Cloudy
4:25 PM 42.8 °F 37.5 °F 41.0 °F 93% 29.65 in 6.2 mi SSE 9.2 mph - N/A   Mostly Cloudy
4:55 PM 42.8 °F 38.6 °F 41.0 °F 93% 29.65 in 6.2 mi SSE 6.9 mph - N/A   Mostly Cloudy
5:00 PM 42 °F - 40 °F 90% 29.68 in 19 mi SSE 6.7 mph - - Rain Drizzle
5:25 PM 42.8 °F 39.3 °F 39.2 °F 87% 29.68 in 6.2 mi SSE 5.8 mph - N/A   Mostly Cloudy
5:55 PM 42.8 °F 38.0 °F 39.2 °F 87% 29.68 in 6.2 mi South 8.1 mph - N/A   Scattered Clouds
6:00 PM 42 °F - 40 °F 88% 29.70 in 28 mi South 6.7 mph - -   Unknown Precipitation
6:25 PM 41.0 °F 36.4 °F 39.2 °F 93% 29.68 in 6.2 mi South 6.9 mph - N/A   Scattered Clouds
6:55 PM 41.0 °F 36.4 °F 39.2 °F 93% 29.68 in 6.2 mi South 6.9 mph - N/A   Mostly Cloudy
7:00 PM 41 °F - 40 °F 95% 29.71 in 9 mi South 6.7 mph - -   Partly Cloudy
7:25 PM 41.0 °F 35.8 °F 41.0 °F 100% 29.71 in 6.2 mi South 8.1 mph - N/A Rain Light Rain
7:55 PM 42.8 °F 37.0 °F 41.0 °F 93% 29.71 in 5.6 mi South 10.4 mph - N/A Rain Light Rain
8:00 PM 42 °F - 41 °F 95% 29.72 in 4 mi South 11.2 mph - - Rain Light Drizzle
8:25 PM 42.8 °F 36.2 °F 41.0 °F 93% 29.71 in 5.6 mi SSW 12.7 mph - N/A Rain Light Rain
8:55 PM 42.8 °F 36.2 °F 41.0 °F 93% 29.71 in 6.2 mi SW 12.7 mph - N/A   Mostly Cloudy
9:00 PM 43 °F - 42 °F 93% 29.73 in 7 mi SW 11.2 mph - - Rain Rain
9:25 PM 42.8 °F 37.0 °F 41.0 °F 93% 29.71 in 6.2 mi WSW 10.4 mph - N/A   Mostly Cloudy
9:55 PM 42.8 °F 36.6 °F 41.0 °F 93% 29.74 in 3.1 mi WSW 11.5 mph - N/A Rain Light Drizzle
10:00 PM 43 °F - 42 °F 92% 29.75 in 2 mi WSW 11.2 mph - - Rain Drizzle
10:25 PM 42.8 °F 38.6 °F 41.0 °F 93% 29.74 in 6.2 mi SW 6.9 mph - N/A   Mostly Cloudy
10:55 PM 42.8 °F 38.6 °F 41.0 °F 93% 29.74 in 6.2 mi SW 6.9 mph - N/A   Mostly Cloudy
11:00 PM 42 °F - 40 °F 88% 29.75 in 12 mi SW 6.7 mph - - Rain Drizzle
11:25 PM 41.0 °F 37.1 °F 39.2 °F 93% 29.74 in 6.2 mi SW 5.8 mph - N/A   Mostly Cloudy
11:55 PM 39.2 °F 35.0 °F 37.4 °F 93% 29.74 in 6.2 mi SW 5.8 mph - N/A   Mostly Cloudy